Terug naar catalogus

FENGYUN 1C DEB

ActiefSSO
NORAD 31502·DEBRIS·🇨🇳 China

Gelanceerd May 10, 1999 vanaf Taiyuan Satellite Launch Center

Loading…

Volgende Passages (komende 24 uur)

TLE

VersSource: Space-Track

Epoch: Sep 12, 2026, 05:28 UTC

1 31502U 99025BWR 26255.22797709  .00002290  00000-0  11557-2 0  9993
2 31502  99.0839 355.5624 0071380 177.0598 183.1009 14.15988945644434

Volg FENGYUN 1C DEB in realtime met AllMySat

Download on the App Store